KG7NQV Weather Reports


time (UTC)temp
C
wind
direction
speed
KPH
gust
KPH
rain 1hr
cm
rain 24hr
cm
rain mn
cm
humidity
%
barometer
mb
20260506020241 18 52 3.2 4.8 0.00 0.00 0.00 70 1015.1
20260506015742 18 89 1.6 3.2 0.00 0.00 0.00 69 1015.2
20260506015241 18 62 1.6 3.2 0.00 0.00 0.00 69 1015.2
20260506014741 18 13 1.6 4.8 0.00 0.00 0.00 68 1015.1
20260506014241 18 51 4.8 6.4 0.00 0.00 0.00 70 1015.1
20260506013741 18 57 4.8 8.0 0.00 0.00 0.00 69 1015.1
20260506013241 18 27 3.2 8.0 0.00 0.00 0.00 71 1015.1
20260506012743 17 7 4.8 9.7 0.00 0.00 0.00 70 1015.0
20260506012241 17 13 4.8 6.4 0.00 0.00 0.00 71 1015.1
20260506011743 18 17 6.4 8.0 0.00 0.00 0.00 72 1015.0
20260506011241 18 39 3.2 6.4 0.00 0.00 0.00 70 1015.1
20260506010741 17 19 4.8 8.0 0.00 0.00 0.00 73 1015.1
20260506010241 17 17 6.4 8.0 0.00 0.00 0.00 74 1015.0
20260506005741 18 355 6.4 9.7 0.00 0.00 0.00 70 1015.0
20260506005242 18 349 6.4 6.4 0.00 0.00 0.00 69 1015.1
20260506004743 18 58 3.2 4.8 0.00 0.00 0.00 66 1015.1
20260506004243 18 57 3.2 4.8 0.00 0.00 0.00 68 1015.1
20260506003743 18 75 3.2 6.4 0.00 0.00 0.00 69 1015.1
20260506003241 18 16 3.2 4.8 0.00 0.00 0.00 68 1015.1
20260506002744 18 36 6.4 8.0 0.00 0.00 0.00 69 1015.1
20260506002244 18 158 3.2 8.0 0.00 0.00 0.00 69 1015.1
20260506001743 17 124 1.6 4.8 0.00 0.00 0.00 71 1015.2
20260506001243 17 59 3.2 6.4 0.00 0.00 0.00 71 1015.2
20260506000741 17 8 6.4 9.7 0.00 0.00 0.00 73 1015.3
20260506000242 17 346 4.8 6.4 0.00 0.00 0.00 73 1015.3
20260505235741 17 50 6.4 8.0 0.00 0.00 0.00 73 1015.3
20260505235248 17 290 3.2 6.4 0.00 0.00 0.00 73 1015.4
20260505234741 17 27 3.2 6.4 0.00 0.00 0.00 74 1015.5
20260505234241 17 39 3.2 6.4 0.00 0.00 0.00 72 1015.6
20260505233743 16 336 1.6 3.2 0.00 0.00 0.00 73 1015.7
20260505233242 16 325 1.6 3.2 0.00 0.00 0.00 76 1015.7
20260505232742 16 325 1.6 3.2 0.00 0.00 0.00 78 1015.7
20260505232243 16 354 6.4 6.4 0.00 0.00 0.00 78 1015.8
20260505231743 16 356 6.4 9.7 0.00 0.00 0.00 78 1015.8
20260505231243 16 352 3.2 6.4 0.00 0.00 0.00 78 1015.8
20260505230741 16 354 6.4 8.0 0.00 0.00 0.00 79 1015.8
20260505230241 16 353 8.0 11.3 0.00 0.00 0.00 79 1015.9
20260505225741 16 0 6.4 9.7 0.00 0.00 0.00 78 1015.9
20260505225241 16 241 1.6 3.2 0.00 0.00 0.00 77 1015.9
20260505224742 16 230 1.6 3.2 0.00 0.00 0.00 75 1015.9
20260505224242 16 0 3.2 4.8 0.00 0.00 0.00 77 1015.9
20260505223741 16 1 4.8 6.4 0.00 0.00 0.00 77 1016.0
20260505223243 16 20 4.8 8.0 0.00 0.00 0.00 77 1015.9
20260505222741 16 12 3.2 6.4 0.00 0.00 0.00 78 1016.0
20260505222244 16 5 4.8 6.4 0.00 0.00 0.00 77 1016.0
20260505221742 16 14 3.2 8.0 0.00 0.00 0.00 76 1016.1
20260505221243 16 274 1.6 3.2 0.00 0.00 0.00 75 1016.1
20260505220742 16 317 1.6 4.8 0.00 0.00 0.00 74 1016.1
20260505220243 16 4 3.2 6.4 0.00 0.00 0.00 73 1016.1
20260505215742 16 25 3.2 6.4 0.00 0.00 0.00 75 1016.2
20260505215246 16 250 3.2 6.4 0.00 0.00 0.00 76 1016.2
20260505214744 16 7 3.2 8.0 0.00 0.00 0.00 76 1016.3
20260505214245 16 191 1.6 4.8 0.00 0.00 0.00 77 1016.3
20260505213741 16 250 3.2 4.8 0.00 0.00 0.00 75 1016.3
20260505213243 16 171 1.6 4.8 0.00 0.00 0.00 75 1016.3
20260505212742 16 201 3.2 6.4 0.00 0.00 0.00 75 1016.3
20260505212243 16 38 1.6 3.2 0.00 0.00 0.00 75 1016.3
20260505211743 16 69 1.6 1.6 0.00 0.00 0.00 75 1016.3
20260505211243 16 350 3.2 6.4 0.00 0.00 0.00 75 1016.3
20260505210743 16 15 6.4 9.7 0.00 0.00 0.00 76 1016.4
20260505210244 16 322 1.6 3.2 0.00 0.00 0.00 74 1016.4
20260505205744 16 318 3.2 6.4 0.00 0.00 0.00 74 1016.4
20260505205243 16 178 1.6 6.4 0.00 0.00 0.00 75 1016.4
20260505204741 15 11 4.8 6.4 0.00 0.00 0.00 76 1016.4
20260505204244 15 229 3.2 4.8 0.00 0.00 0.00 78 1016.3
20260505203743 15 24 6.4 8.0 0.00 0.00 0.00 78 1016.4
20260505203242 15 8 6.4 9.7 0.00 0.00 0.00 78 1016.4
20260505202742 15 103 0.0 4.8 0.00 0.00 0.00 79 1016.4
20260505202242 16 12 3.2 9.7 0.00 0.00 0.00 77 1016.5
20260505201744 16 83 3.2 4.8 0.00 0.00 0.00 76 1016.5
20260505201241 15 305 3.2 8.0 0.00 0.00 0.00 78 1016.6
20260505200742 15 22 1.6 6.4 0.00 0.00 0.00 75 1016.5
20260505200243 15 238 3.2 4.8 0.00 0.00 0.00 77 1016.5
20260505195744 15 31 1.6 4.8 0.00 0.00 0.00 77 1016.5
20260505195243 15 198 3.2 4.8 0.00 0.00 0.00 78 1016.6
20260505194745 15 17 6.4 9.7 0.00 0.00 0.00 77 1016.6
20260505194243 15 320 1.6 3.2 0.00 0.00 0.00 79 1016.6
20260505193742 15 280 1.6 3.2 0.00 0.00 0.00 80 1016.7
20260505193243 15 249 3.2 6.4 0.00 0.00 0.00 79 1016.7
20260505192741 15 260 1.6 6.4 0.00 0.00 0.00 80 1016.7
20260505192247 15 293 1.6 3.2 0.00 0.00 0.00 78 1016.7
20260505191743 15 8 1.6 4.8 0.00 0.00 0.00 78 1016.7
20260505191243 14 356 3.2 4.8 0.00 0.00 0.00 79 1016.7
20260505190742 14 27 4.8 9.7 0.00 0.00 0.00 79 1016.7
20260505190246 14 14 4.8 8.0 0.00 0.00 0.00 80 1016.7
20260505185743 14 7 4.8 6.4 0.00 0.00 0.00 79 1016.7
20260505185241 14 347 1.6 4.8 0.00 0.00 0.00 80 1016.7
20260505184743 14 14 0.0 3.2 0.00 0.00 0.00 79 1016.7
20260505184245 14 359 4.8 6.4 0.00 0.00 0.00 80 1016.6
20260505183746 14 0 4.8 6.4 0.00 0.00 0.00 81 1016.6
20260505183243 14 11 4.8 6.4 0.00 0.00 0.00 79 1016.6
20260505182743 14 14 3.2 4.8 0.00 0.00 0.00 79 1016.6
20260505182243 14 38 3.2 3.2 0.00 0.00 0.00 79 1016.6
20260505181742 14 49 1.6 4.8 0.00 0.00 0.00 79 1016.6
20260505181245 14 71 3.2 3.2 0.00 0.00 0.00 78 1016.5
20260505180742 14 3 1.6 3.2 0.00 0.00 0.00 80 1016.5
20260505180247 14 18 4.8 6.4 0.00 0.00 0.00 79 1016.5
20260505175743 14 24 0.0 3.2 0.00 0.00 0.00 79 1016.5
20260505175244 14 70 0.0 1.6 0.00 0.00 0.00 79 1016.5
20260505174744 14 58 1.6 3.2 0.00 0.00 0.00 79 1016.5
20260505174243 13 261 0.0 1.6 0.00 0.00 0.00 81 1016.5
20260505173750 13 12 3.2 3.2 0.00 0.00 0.00 82 1016.5
20260505173244 13 359 4.8 6.4 0.00 0.00 0.00 81 1016.4
20260505172744 13 72 1.6 3.2 0.00 0.00 0.00 80 1016.4
20260505172244 13 245 1.6 3.2 0.00 0.00 0.00 81 1016.4
20260505171744 13 36 3.2 4.8 0.00 0.00 0.00 82 1016.3
20260505171243 13 4 4.8 6.4 0.00 0.00 0.00 82 1016.3
20260505170743 13 9 3.2 4.8 0.00 0.00 0.00 83 1016.3
20260505170242 13 351 4.8 6.4 0.00 0.00 0.00 81 1016.3
20260505165746 13 25 1.6 3.2 0.00 0.00 0.00 82 1016.3
20260505165241 13 68 0.0 1.6 0.00 0.00 0.00 83 1016.3
20260505164747 13 42 1.6 3.2 0.00 0.00 0.00 82 1016.4
20260505164242 13 2 1.6 4.8 0.00 0.00 0.00 82 1016.4
20260505163742 13 148 0.0 1.6 0.00 0.00 0.00 82 1016.4
20260505163244 13 54 0.0 1.6 0.00 0.00 0.00 81 1016.4
20260505162744 13 193 0.0 3.2 0.00 0.00 0.00 83 1016.4
20260505162241 13 69 0.0 1.6 0.00 0.00 0.00 84 1016.4
20260505161741 13 90 0.0 3.2 0.00 0.00 0.00 84 1016.4
20260505161244 13 155 1.6 3.2 0.00 0.00 0.00 84 1016.3
20260505160745 13 141 1.6 3.2 0.00 0.00 0.00 85 1016.3
20260505160244 13 164 1.6 3.2 0.00 0.00 0.00 85 1016.3
20260505153242 12 267 1.6 3.2 0.00 0.00 0.00 87 1016.4
20260505152743 12 167 1.6 3.2 0.00 0.00 0.00 86 1016.4
20260505152243 12 188 1.6 3.2 0.00 0.00 0.00 87 1016.4
20260505151743 12 254 1.6 3.2 0.00 0.00 0.00 87 1016.4
20260505151242 12 124 1.6 3.2 0.00 0.00 0.00 88 1016.3
20260505150745 12 144 3.2 4.8 0.00 0.00 0.00 88 1016.3
20260505150242 12 154 0.0 1.6 0.00 0.00 0.00 88 1016.3
20260505140245 11 172 1.6 3.2 0.00 0.00 0.00 90 1015.9
20260505130243 11 130 1.6 3.2 0.00 0.00 0.00 90 1015.6
20260505124743 11 221 0.0 3.2 0.00 0.00 0.00 90 1015.4
20260505124244 11 173 4.8 6.4 0.00 0.00 0.00 90 1015.4
20260505123742 11 182 1.6 4.8 0.00 0.00 0.00 90 1015.3
20260505123245 11 195 1.6 3.2 0.00 0.00 0.00 90 1015.3
20260505122744 11 198 0.0 1.6 0.00 0.00 0.00 90 1015.3
20260505122242 11 211 0.0 1.6 0.00 0.00 0.00 91 1015.3
20260505121744 11 146 3.2 4.8 0.00 0.00 0.00 91 1015.3
20260505121242 11 153 4.8 6.4 0.00 0.00 0.00 91 1015.3
20260505120743 11 121 1.6 1.6 0.00 0.00 0.00 91 1015.2
20260505120244 11 158 3.2 4.8 0.00 0.00 0.00 91 1015.2
20260505115743 11 169 1.6 3.2 0.00 0.00 0.00 91 1015.2
20260505115243 11 160 4.8 8.0 0.00 0.00 0.00 91 1015.2
20260505114743 11 148 3.2 6.4 0.00 0.00 0.00 91 1015.2
20260505114245 11 156 3.2 6.4 0.00 0.00 0.00 91 1015.2
20260505113744 11 167 3.2 6.4 0.00 0.00 0.00 90 1015.1
20260505113241 12 163 6.4 9.7 0.00 0.00 0.00 90 1015.2
20260505112743 12 157 6.4 12.9 0.00 0.00 0.00 89 1015.2
20260505112242 12 166 6.4 9.7 0.00 0.00 0.00 89 1015.2
20260505111741 12 164 6.4 8.0 0.00 0.00 0.00 89 1015.2
20260505111242 12 187 1.6 4.8 0.00 0.00 0.00 88 1015.2
20260505110742 12 256 6.4 11.3 0.00 0.00 0.00 88 1015.1
20260505110242 12 148 4.8 6.4 0.00 0.00 0.00 89 1015.1
20260505101743 12 154 3.2 3.2 0.00 0.00 0.00 87 1015.0
20260505101243 12 333 4.8 8.0 0.00 0.00 0.00 87 1014.9
20260505100743 12 242 6.4 9.7 0.00 0.00 0.00 87 1014.9
20260505100243 12 243 4.8 8.0 0.00 0.00 0.00 88 1014.8
20260505095741 12 171 9.7 14.5 0.00 0.00 0.00 88 1014.8
20260505095244 12 162 6.4 8.0 0.00 0.00 0.00 88 1014.8
20260505094741 12 169 4.8 6.4 0.00 0.00 0.00 88 1014.8
20260505094243 12 172 3.2 3.2 0.00 0.00 0.00 88 1014.7
20260505093744 12 162 4.8 8.0 0.00 0.00 0.00 87 1014.7
20260505093241 12 175 8.0 11.3 0.00 0.00 0.00 87 1014.6
20260505092743 12 243 3.2 6.4 0.00 0.00 0.00 87 1014.7
20260505092245 12 164 8.0 12.9 0.00 0.00 0.00 87 1014.6
20260505091742 12 164 4.8 6.4 0.00 0.00 0.00 88 1014.6
20260505091243 12 177 4.8 6.4 0.00 0.00 0.00 87 1014.6
20260505090743 12 186 3.2 4.8 0.00 0.00 0.00 88 1014.6
20260505090241 12 174 3.2 8.0 0.00 0.00 0.00 88 1014.6
20260505085743 12 150 4.8 6.4 0.00 0.00 0.00 87 1014.6
20260505085245 12 170 1.6 3.2 0.00 0.00 0.00 86 1014.6
20260505084743 12 167 3.2 4.8 0.00 0.00 0.00 87 1014.6
20260505084242 12 139 6.4 11.3 0.00 0.00 0.00 87 1014.6
20260505083747 12 115 1.6 3.2 0.00 0.00 0.00 87 1014.6
20260505083243 12 148 8.0 9.7 0.00 0.00 0.00 87 1014.6
20260505082741 12 141 8.0 11.3 0.00 0.00 0.00 87 1014.6
20260505082243 12 11 8.0 11.3 0.00 0.00 0.00 86 1014.6
20260505081742 12 142 6.4 9.7 0.00 0.00 0.00 86 1014.5
20260505081242 12 7 3.2 6.4 0.00 0.00 0.00 87 1014.5
20260505080742 12 125 3.2 6.4 0.00 0.00 0.00 86 1014.5
20260505080242 12 105 4.8 6.4 0.00 0.00 0.00 86 1014.4
20260505075742 12 26 1.6 3.2 0.00 0.00 0.00 86 1014.4
20260505075241 12 51 4.8 6.4 0.00 0.00 0.00 87 1014.4
20260505074744 12 71 4.8 6.4 0.00 0.00 0.00 86 1014.3
20260505074243 12 284 1.6 3.2 0.00 0.00 0.00 86 1014.3
20260505073741 12 171 11.3 17.7 0.00 0.00 0.00 86 1014.4
20260505073241 12 189 6.4 8.0 0.00 0.00 0.00 86 1014.3
20260505072741 12 10 9.7 16.1 0.00 0.00 0.00 86 1014.3
20260505072242 12 30 4.8 8.0 0.00 0.00 0.00 86 1014.3
20260505071741 12 179 3.2 4.8 0.00 0.00 0.00 86 1014.3
20260505071241 12 122 6.4 9.7 0.00 0.00 0.00 86 1014.3
20260505070742 12 49 1.6 4.8 0.00 0.00 0.00 87 1014.3
20260505070242 12 22 9.7 12.9 0.00 0.00 0.00 87 1014.2
20260505065741 12 324 3.2 4.8 0.00 0.00 0.00 87 1014.2
20260505065241 12 247 3.2 4.8 0.00 0.00 0.00 87 1014.3
20260505064741 12 323 3.2 6.4 0.00 0.00 0.00 86 1014.2
20260505064241 12 194 4.8 6.4 0.00 0.00 0.00 86 1014.2
20260505063741 12 203 1.6 3.2 0.00 0.00 0.00 86 1014.2
20260505063242 12 245 3.2 9.7 0.00 0.00 0.00 86 1014.2
20260505062741 12 355 4.8 9.7 0.00 0.00 0.00 86 1014.2
20260505062241 12 176 6.4 9.7 0.00 0.00 0.00 86 1014.2
20260505061742 12 188 3.2 8.0 0.00 0.00 0.00 86 1014.2
20260505061242 12 249 6.4 9.7 0.00 0.00 0.00 86 1014.2
20260505060742 12 186 3.2 6.4 0.00 0.00 0.00 86 1014.2
20260505060241 12 253 3.2 6.4 0.00 0.00 0.00 86 1014.3
20260505055741 12 140 0.0 1.6 0.00 0.00 0.00 86 1014.3
20260505055242 12 154 6.4 8.0 0.00 0.00 0.00 86 1014.2
20260505054741 12 170 9.7 14.5 0.00 0.00 0.00 87 1014.1
20260505054241 12 165 8.0 11.3 0.00 0.00 0.00 87 1014.2
20260505053742 12 131 3.2 4.8 0.00 0.00 0.00 86 1014.1
20260505053241 12 133 3.2 4.8 0.00 0.00 0.00 87 1014.1
20260505052741 12 80 3.2 3.2 0.00 0.00 0.00 87 1014.1
20260505052242 12 259 0.0 1.6 0.00 0.00 0.00 87 1014.1
20260505051741 12 220 0.0 1.6 0.00 0.00 0.00 87 1014.1
20260505051241 12 253 3.2 6.4 0.00 0.00 0.00 86 1014.0
20260505050741 13 204 1.6 4.8 0.00 0.00 0.00 86 1014.0
20260505050241 13 39 4.8 8.0 0.00 0.00 0.00 86 1013.9
20260505041741 13 342 6.4 11.3 0.00 0.00 0.00 84 1013.3
20260505041241 13 264 3.2 6.4 0.00 0.00 0.00 84 1013.3
20260505040741 13 205 3.2 6.4 0.00 0.00 0.00 83 1013.2
20260505040243 14 258 6.4 12.9 0.00 0.00 0.00 83 1013.2
20260505035742 14 176 0.0 3.2 0.00 0.00 0.00 83 1013.1
20260505035241 14 208 3.2 4.8 0.00 0.00 0.00 82 1013.1
20260505034742 15 237 4.8 11.3 0.00 0.00 0.00 82 1013.0
20260505034242 15 223 4.8 9.7 0.00 0.00 0.00 82 1012.9
20260505033743 15 263 4.8 6.4 0.00 0.00 0.00 82 1012.6
20260505033242 15 303 3.2 8.0 0.00 0.00 0.00 81 1012.5
20260505032741 15 246 6.4 12.9 0.00 0.00 0.00 81 1012.5
20260505032242 15 252 3.2 6.4 0.00 0.00 0.00 80 1012.3
20260505031741 15 230 3.2 9.7 0.00 0.00 0.00 80 1012.2
20260505031241 15 246 4.8 6.4 0.00 0.00 0.00 81 1012.1
20260505030742 15 252 8.0 14.5 0.00 0.00 0.00 81 1012.0
20260505030242 16 251 6.4 11.3 0.00 0.00 0.00 81 1011.9
20260505025741 16 248 6.4 12.9 0.00 0.00 0.00 82 1011.9
20260505025244 16 252 3.2 6.4 0.00 0.00 0.00 82 1011.8
20260505024742 16 245 3.2 8.0 0.00 0.00 0.00 81 1011.8
20260505024241 16 244 1.6 4.8 0.00 0.00 0.00 80 1011.7
20260505023743 17 241 4.8 6.4 0.00 0.00 0.00 79 1011.6
20260505023241 17 257 8.0 11.3 0.00 0.00 0.00 78 1011.6
20260505022741 17 226 3.2 6.4 0.00 0.00 0.00 77 1011.6
20260505022241 18 256 3.2 6.4 0.00 0.00 0.00 76 1011.5
20260505021742 18 273 6.4 11.3 0.00 0.00 0.00 74 1011.5
20260505021242 18 189 1.6 4.8 0.00 0.00 0.00 74 1011.4
20260505020741 18 173 4.8 8.0 0.00 0.00 0.00 73 1011.4